This demonstration page uses our WeatherBlox Daily Observations layout. Learn more.

Left ArrowRight Arrow

Hourly Observations for February 10, 2019

Temp ( °F °C ) Dew Point ( °F °C ) Humidity (%) Winds ( mph kmh ) Pressure ( in mb ) Visibility ( mi km ) Precip ( " mm )
12:15 am 00:15 Clear 19 -7 19 -7 100 100 ESE 7 11 30.68 1039 10 16 N/A
12:16 am 00:16 Clear 19 -7 19 -7 100 100 E 7 11 30.68 1039 10 16 N/A
12:35 am 00:35 Clear 21 -6 19 -7 93 93 ESE 7 11 30.66 1038 10 16 N/A
12:55 am 00:55 Clear 21 -6 19 -7 93 93 E 6 9 30.67 1039 10 16 N/A
12:56 am 00:56 Clear 21 -6 19 -7 93 93 E 6 9 30.67 1039 10 16 N/A
1:15 am 01:15 Clear 19 -7 18 -8 93 93 E 6 9 30.67 1039 10 16 N/A
1:35 am 01:35 Clear 19 -7 18 -8 93 93 E 6 9 30.67 1039 10 16 N/A
1:55 am 01:55 Partly Cloudy 19 -7 19 -7 100 100 E 7 11 30.66 1038 10 16 N/A
1:56 am 01:56 Partly Cloudy 19 -7 19 -7 100 100 E 6 9 30.65 1038 10 16 N/A
2:15 am 02:15 Mostly Cloudy 19 -7 19 -7 100 100 E 7 11 30.63 1037 10 16 N/A
2:35 am 02:35 Partly Cloudy 19 -7 19 -7 100 100 E 6 9 30.63 1037 10 16 N/A
2:55 am 02:55 Clear 19 -7 19 -7 100 100 ESE 6 9 30.63 1037 10 16 N/A
2:56 am 02:56 Clear 19 -7 19 -7 100 100 ESE 6 9 30.63 1037 10 16 N/A
3:15 am 03:15 Clear 19 -7 19 -7 100 100 ESE 6 9 30.61 1037 10 16 N/A
3:35 am 03:35 Partly Cloudy 19 -7 18 -8 93 93 ESE 6 9 30.61 1037 10 16 N/A
3:55 am 03:55 Clear 19 -7 18 -8 93 93 ESE 6 9 30.60 1036 10 16 N/A
3:56 am 03:56 Clear 19 -7 18 -8 93 93 ESE 6 9 30.60 1036 10 16 N/A
4:15 am 04:15 Clear 19 -7 18 -8 93 93 ESE 6 9 30.59 1036 10 16 N/A
4:35 am 04:35 Clear 19 -7 18 -8 93 93 E 7 11 30.58 1036 10 16 N/A
4:55 am 04:55 Clear 19 -7 18 -8 93 93 ESE 8 13 30.57 1035 10 16 N/A
4:56 am 04:56 Clear 19 -7 18 -8 93 93 E 9 15 30.57 1035 10 16 N/A
5:15 am 05:15 Clear 19 -7 18 -8 93 93 ESE 9 15 30.56 1035 10 16 N/A
5:35 am 05:35 Clear 21 -6 18 -8 86 86 ESE 8 13 30.56 1035 10 16 N/A
5:55 am 05:55 Clear 21 -6 18 -8 86 86 ESE 8 13 30.55 1034 10 16 N/A
5:56 am 05:56 Clear 21 -6 18 -8 86 86 ESE 9 15 30.55 1034 10 16 N/A
6:15 am 06:15 Clear 21 -6 18 -8 86 86 ESE 10 17 30.54 1034 10 16 N/A
6:35 am 06:35 Clear 21 -6 18 -8 86 86 SE 8 13 30.54 1034 10 16 N/A
6:55 am 06:55 Clear 21 -6 19 -7 93 93 ESE 7 11 30.53 1034 10 16 N/A
6:56 am 06:56 Clear 21 -6 19 -7 93 93 ESE 7 11 30.53 1034 10 16 N/A
7:15 am 07:15 Clear 21 -6 19 -7 93 93 ESE 9 15 30.51 1033 10 16 N/A
7:35 am 07:35 Clear 21 -6 19 -7 93 93 SE 7 11 30.52 1033 10 16 N/A
7:55 am 07:55 Sunny 23 -5 19 -7 86 86 E 7 11 30.51 1033 10 16 N/A
7:56 am 07:56 Partly Cloudy 23 -5 19 -7 86 86 ESE 7 11 30.51 1033 10 16 N/A
8:15 am 08:15 Mostly Cloudy 23 -5 19 -7 86 86 ESE 6 9 30.52 1034 10 16 N/A
8:35 am 08:35 Cloudy 23 -5 19 -7 86 86 ESE 6 9 30.51 1033 10 16 N/A
8:55 am 08:55 Cloudy 23 -5 21 -6 93 93 ESE 6 9 30.52 1034 10 16 N/A
8:56 am 08:56 Cloudy 23 -5 21 -6 93 93 ESE 6 9 30.51 1033 10 16 N/A
9:15 am 09:15 Mostly Cloudy 25 -4 21 -6 86 86 ESE 7 11 30.51 1033 10 16 N/A
9:35 am 09:35 Sunny 25 -4 21 -6 86 86 SE 9 15 30.50 1033 10 16 N/A
9:36 am 09:36 Partly Cloudy 25 -4 21 -6 86 86 SE 8 13 30.50 1033 10 16 N/A
9:55 am 09:55 Partly Cloudy 27 -3 21 -6 80 80 SSE 8 13 30.50 1033 10 16 N/A
9:56 am 09:56 Partly Cloudy 27 -3 21 -6 80 80 SSE 9 15 30.50 1033 10 16 N/A
10:15 am 10:15 Mostly Cloudy 27 -3 23 -5 86 86 SSE 13 20 30.49 1032 10 16 N/A
10:36 am 10:36 Cloudy 27 -3 23 -5 86 86 SSE 13 20 30.46 1031 10 16 N/A
10:55 am 10:55 Cloudy 27 -3 23 -5 86 86 SSE 12 19 30.45 1031 10 16 N/A
10:56 am 10:56 Cloudy 27 -3 23 -5 86 86 SSE 13 20 30.44 1031 10 16 N/A
11:15 am 11:15 Cloudy 28 -2 25 -4 86 86 SSE 12 19 30.44 1031 10 16 N/A
11:35 am 11:35 Cloudy 28 -2 25 -4 86 86 SSE 10 17 30.44 1031 3 4 N/A
11:36 am 11:36 Cloudy 28 -2 25 -4 86 86 SSE 9 15 30.44 1031 3 4 N/A
11:55 am 11:55 Cloudy 27 -3 27 -3 100 100 S 7 11 30.44 1031 2 2 N/A
11:56 am 11:56 Cloudy 27 -3 27 -3 100 100 S 7 11 30.44 1031 2 2 N/A
12:15 pm 12:15 Cloudy 27 -3 27 -3 100 100 S 6 9 30.44 1031 1 2 N/A
12:35 pm 12:35 Cloudy 28 -2 28 -2 100 100 N N/A 30.41 1030 1 1 N/A
12:36 pm 12:36 Cloudy 28 -2 28 -2 100 100 N N/A 30.41 1030 1 1 N/A
12:55 pm 12:55 Cloudy 28 -2 28 -2 100 100 SE 5 7 30.39 1029 1 1 N/A
1:15 pm 13:15 Cloudy 28 -2 28 -2 100 100 SSE 6 9 30.37 1029 1 2 N/A
1:35 pm 13:35 Cloudy 28 -2 28 -2 100 100 SSE 5 7 30.36 1028 1 1 N/A
1:36 pm 13:36 Cloudy 28 -2 28 -2 100 100 SSE 3 6 30.36 1028 1 2 N/A
1:55 pm 13:55 Cloudy 30 -1 30 -1 100 100 SSE 7 11 30.34 1027 1 2 N/A
2:15 pm 14:15 Cloudy 30 -1 30 -1 100 100 SSE 8 13 30.32 1027 3 4 N/A
2:16 pm 14:16 Cloudy 30 -1 30 -1 100 100 SSE 9 15 30.32 1027 3 4 N/A
2:35 pm 14:35 Cloudy 32 undefined 32 undefined 100 100 S 7 11 30.31 1026 1 2 N/A
2:55 pm 14:55 Cloudy 32 undefined 32 undefined 100 100 SSE 7 11 30.30 1026 3 5 N/A
3:15 pm 15:15 Cloudy 32 undefined 32 undefined 100 100 S 9 15 30.30 1026 7 11 N/A
3:16 pm 15:16 Cloudy 32 undefined 32 undefined 100 100 S 9 15 30.30 1026 7 11 N/A
3:35 pm 15:35 Cloudy 32 undefined 32 undefined 100 100 S 9 15 30.29 1026 5 8 N/A
3:55 pm 15:55 Cloudy 32 undefined 32 undefined 100 100 S 9 15 30.28 1025 5 8 N/A
4:15 pm 16:15 Cloudy 32 undefined 32 undefined 100 100 S 9 15 30.27 1025 3 5 N/A
4:16 pm 16:16 Cloudy 32 undefined 32 undefined 100 100 S 9 15 30.27 1025 3 5 N/A
4:35 pm 16:35 Cloudy 32 undefined 32 undefined 100 100 S 9 15 30.27 1025 4 6 N/A
4:55 pm 16:55 Cloudy 32 undefined 32 undefined 100 100 S 6 9 30.27 1025 3 4 N/A
4:56 pm 16:56 Cloudy 32 undefined 32 undefined 100 100 S 7 11 30.27 1025 3 4 N/A
5:15 pm 17:15 Cloudy 32 undefined 32 undefined 100 100 S 8 13 30.27 1025 3 5 N/A
5:16 pm 17:16 Cloudy 32 undefined 32 undefined 100 100 S 8 13 30.26 1025 4 6 N/A
5:35 pm 17:35 Cloudy 32 undefined 32 undefined 100 100 S 9 15 30.26 1025 5 8 N/A
5:55 pm 17:55 Cloudy 32 undefined 32 undefined 100 100 S 8 13 30.26 1025 5 8 N/A
5:56 pm 17:56 Cloudy 32 undefined 32 undefined 100 100 S 9 15 30.26 1025 5 8 N/A
6:15 pm 18:15 Cloudy 32 undefined 32 undefined 100 100 S 8 13 30.25 1024 4 6 N/A
6:16 pm 18:16 Cloudy 32 undefined 32 undefined 100 100 S 8 13 30.25 1024 4 6 N/A
6:35 pm 18:35 Cloudy 32 undefined 32 undefined 100 100 S 8 13 30.24 1024 5 8 N/A
6:55 pm 18:55 Cloudy 32 undefined 32 undefined 100 100 S 9 15 30.24 1024 5 8 N/A
6:56 pm 18:56 Cloudy 32 undefined 32 undefined 100 100 S 10 17 30.24 1024 5 8 N/A
7:15 pm 19:15 Cloudy 32 undefined 32 undefined 100 100 S 10 17 30.26 1025 5 8 N/A
7:16 pm 19:16 Cloudy 32 undefined 32 undefined 100 100 S 9 15 30.26 1025 5 8 N/A
7:35 pm 19:35 Cloudy 32 undefined 32 undefined 100 100 S 10 17 30.26 1025 5 8 N/A
7:55 pm 19:55 Cloudy 32 undefined 32 undefined 100 100 S 9 15 30.25 1024 3 4 N/A
7:56 pm 19:56 Cloudy 32 undefined 32 undefined 100 100 S 9 15 30.25 1024 2 3 N/A
8:15 pm 20:15 Cloudy 32 undefined 32 undefined 100 100 S 7 11 30.24 1024 2 3 N/A
8:35 pm 20:35 Cloudy 32 undefined 32 undefined 100 100 S 7 11 30.24 1024 2 3 N/A
8:36 pm 20:36 Cloudy 32 undefined 32 undefined 100 100 S 8 13 30.24 1024 2 3 N/A
8:55 pm 20:55 Cloudy 32 undefined 32 undefined 100 100 S 7 11 30.23 1024 2 2 N/A
8:56 pm 20:56 Cloudy 32 undefined 32 undefined 100 100 S 7 11 30.23 1024 2 2 N/A
9:15 pm 21:15 Cloudy 32 undefined 32 undefined 100 100 S 7 11 30.23 1024 1 2 N/A
9:35 pm 21:35 Cloudy 32 undefined 32 undefined 100 100 S 7 11 30.23 1024 1 2 N/A
9:36 pm 21:36 Cloudy 32 undefined 32 undefined 100 100 S 7 11 30.23 1024 1 2 N/A
9:55 pm 21:55 Cloudy 32 undefined 32 undefined 100 100 S 7 11 30.24 1024 1 2 N/A
9:56 pm 21:56 Cloudy 32 undefined 32 undefined 100 100 S 7 11 30.23 1024 1 2 N/A
10:15 pm 22:15 Cloudy 32 undefined 32 undefined 100 100 S 7 11 30.23 1024 1 1 N/A
10:35 pm 22:35 Cloudy 32 undefined 32 undefined 100 100 S 6 9 30.22 1023 1 1 N/A
10:36 pm 22:36 Cloudy 32 undefined 32 undefined 100 100 S 6 9 30.22 1023 1 1 N/A

Powered by AerisWeather